Погода в Владимире

Хотите узнать прогноз погоды в Владимире? Тогда Вам сюда: Погода в Владимире

Поиск расширенной информации на нашем сайте:

Полезная информация:

Новости сайта



02.01.2020
Опубликован Долгосрочный прогноз погоды по городам России и ближнего зарубежья на январь 2020 года.
Карты: Прогноз на январь и февраль 2020 года, Сравнение прогнозируемой аномалии приземной температуры воздуха на январь 2020 года по разным моделям.




Погода в Владимире - сегодня

Время (UTC), дата Ветер
(°,м/с) 
Видим.   Явления Облачность Т
(°С)
Тd
(°С)
f(%) Тe
(°С)
Pmin
(гПа)
dP
(гПа)
Po
(мм)
O2
(г/м3)
Тmin Tmax R s Состояние
почвы
12 09.08.20 340 (С) 10 км    9/8 600 м средняя 
[Cu Sc|Ac trans]
+21.6 +12.3 55 +26  1014.6  -0.6  746  276           
15 09.08.20 030 (СВ) 10 км    8/6 600 м средняя 
[Sc|Ac trans]
+21.2 +12.9 59 +27  1014.2  -0.5  746  276    +23.9       
18 09.08.20 010 (С) 10 км    6/4 600 м средняя 
[Sc|Ac trans]
+15.4 +11.9 80 +21  1015.1  0.5  746  282           
21 09.08.20 350 (С) 4000 м  дымка  6/4 600 м средняя 
[Sc|Ac trans]
+12.6 +11.1 91 +17  1015.6  0.3  746  285           
00 10.08.20 тихо ()   4000 м  дымка  4/0 средняя 
[Ac trans]
+10.5 +9.6 94 +11  1016.1  0.3  747  288           
03 10.08.20 020 (С) 4000 м  дымка  6/4 600 м средняя 
[Sc|Ac trans]
+12.1 +11.3 95 +16  1016.4  0.5  747  286  +9.7        сухая 
06 10.08.20 080 (В) 10 км    6/3 600 м средняя 
[Sc|Ac trans]
+17 +9.3 60 +18  1016.1  747  282           
09 10.08.20 210 (ЮЗ) 10 км    5/5 600 м 
[Cu med, cong]
+20.6 +10.7 53 +23  1015.2  -0.7  746  278           
12 10.08.20 290 (З) 10 км    8/8 600 м 
[Cu med, cong]
+22 +12.3 54 +26  1013.9  -1.1  746  276           
15 10.08.20 240 (ЮЗ) 10 км    3/3 600 м 
[Sc diur, vesp]
+23.3 +12.8 52 +29  1012.7  -1.1  745  274    +24.4       
18 10.08.20 210 (ЮЗ) 10 км    6/6 600 м 
[Sc]
+16.9 +13.8 82 +25  1012.7  -0.3  744  280           
21 10.08.20 тихо ()   4000 м  слаб. ливневой дождь  8/8 600 м кучево-дожд. 
[Cb cap]
+16 +14.7 92 +24  1012.2  -0.6  744  280           
00 11.08.20 270 (З) 4000 м  дымка{ливн. осадки}  8/8 600 м кучево-дожд. 
[Cb cap]
+15.9 +13.9 88 +24  1011.9  -0.6  744  280           
03 11.08.20 280 (З) 4000 м  дымка  9/6 600 м средняя 
[Sc|Ac und]
+15.4 +14.2 93 +25  1011.6  -0.4  744  281  +15.2    0.4    влажная 
06 11.08.20 320 (СЗ) 10 км    9/8 540 м средняя 
[Sc|Ac trans]
+18.2 +15.2 83 +29  1011.2  0.1  743  278           
09 11.08.20 310 (СЗ) 10 км  {ливн. осадки}  9/8 600 м средняя 
[Cu hum|Ac trans]
+19.9 +14.4 71 +29  1011.2  743  276           
12 11.08.20 310 (СЗ) 10 км  {ливн. осадки}  8/8 600 м 
[Cu hum]
+19.6 +11.9 61 +24  1011.5  0.3  744  277           
15 11.08.20 300 (СЗ) 10 км    5/5 600 м 
[Cu hum]
+19.2 +11 59 +23  1011.1  -0.5  743  278    +21.4  0.3     
18 11.08.20 330 (СЗ) 10 км    8/8 600 м 
[Sc]
+14.3 +10.7 79 +17  1011.9  0.5  744  283           
21 11.08.20 310 (СЗ) 10 км    8/8 600 м 
[Sc]
+12.6 +10.4 86 +15  1011.9  0.1  744  284           
00 12.08.20 330 (СЗ) 10 км    8/5 600 м средняя 
[Sc|Ac trans]
+11.8 +9.9 88 +13  1011.6  -0.4  743  285           
03 12.08.20 320 (СЗ) 4000 м  дымка  9/6 600 м средняя 
[Sc|Ac trans]
+11.5 +10 90 +14  1011.6  743  286  +11.3        влажная 
06 12.08.20 320 (СЗ) 10 км  в посл. час ливневой дождь  9/8 240 м кучево-дожд., средняя 
[Cb cap|Ac trans]
+14.2 +11.2 82 +18  1011.2  -0.2  743  283           
09 12.08.20 300 (СЗ) 10 км    9/8 600 м средняя 
[Sc|Ac trans]
+17.5 +10.8 65 +21  1011.3  0.3  743  280           
12 12.08.20 340 (С) 10 км  в посл. час ливневой дождь  8/8 800 м кучево-дожд., средняя 
[Cb calv|Ac trans]
+19.6 +11.9 61 +24  1010.3  -0.8  743  277           
Время (UTC), дата Ветер
(°,м/с) 
Видим.   Явления Облачность Т
(°С)
Тd
(°С)
f(%) Тe
(°С)
Pmin
(гПа)
dP
(гПа)
Po
(мм)
O2
(г/м3)
Тmin Tmax R s Состояние
почвы

Для получения пояснительной информации подведите курсор к названию столбца.

ПОГОДА в Владимире - архив

Всё, что Вы хотите узнать о погоде в Владимире - удобно и подробно!

Выберите нужную дату (начиная с 1 января 2019* года) и нажмите кнопку "Найти".
Будут отображены архивные сводки погоды по пункту Владимир, начиная с указанной даты.


Отображать данные в формате CSV (для использования в таблицах Excel)


Внимание! Наш архив погоды предназначен исключительно для личного некоммерческого использования в познавательных целях. Если Вам необходимы официальные справки о состоянии погоды (для производственных, юридических, коммерческих и т.п. целей), обращайтесь в органы Росгидромета.

*Примечание: данная дата относится к архиву по метеостанциям СССР (Россия, СНГ, Балтия).
Архив по метеостанциям Зарубежной Европы и Азии (кроме Китая) хранится 10 дней, по другим регионам земного шара (Китай, Африка, Америка, Австралия, Океания) - 1 день.

Владимир - район местоположения метеостанции


Название, широта, долгота, высота метеостанции:
Владимир 56.1°ш. 40.3°д. 172 м над ур. моря [Российская Федерация]

Дополнительная информация

В oтличие oт бoльшинства пoгoдных сайтoв мы публикуем пoдрoбную метеoинфoрмацию в детальнoм прoфессиoнальнoм фoрмате.

Характеристики температуры и влажнoсти вoздуха измеряются на высoте 2 м в тени вдали oт зданий и деревьев.
Скoрoсть ветра измеряется на высoте 10 м (на урoвне рoста челoвека скoрoсть ветра ниже в 1.5-2 раза). Если метеoстанция нахoдится в гoрoде или в лесу, тo скoрoсть ветра занижена на 2-4 м/с пo сравнению с oткрытым местoм. Скoрoсть ветра над акватoриями крупных рек и oзёр, а также на вершинах хoлмoв на 2-5 м/с выше, чем в oбычных услoвиях.
Атмoсфернoе давление в разных тoчках местнoсти мoжет значительнo oтличаться oт давления на метеoстанции, в зависимoсти oт услoвий рельефа (при пoдъёме на 10 м давление пoнижается примернo на 1 мм рт.ст.).